Location: Unspecified
(0.0000°N, 0.0000°E)
Time: 09:09:09
(UTC+02:00)

N. Korean satellite - Visible Passes

Search period start: 24 September 2018 00:00
Search period end: 04 October 2018 00:00
Orbit: 458 x 511 km, 97.2° (Epoch: 23 September)

Date Brightness Start Highest point End Pass type
(mag) Time Alt. Az. Time Alt. Az. Time Alt. Az.
24 Sep 8.5 20:23:47 10° SSW 20:26:55 34° W 20:30:05 10° NW visible
27 Sep 9.8 07:23:30 10° NE 07:26:16 20° E 07:29:00 10° SSE visible
27 Sep 9.8 20:45:07 10° SW 20:47:15 16° W 20:49:24 10° WNW visible
28 Sep 8.1 20:19:41 10° S 20:22:57 39° W 20:26:13 10° NNW visible
01 Oct 9.9 07:19:48 10° ENE 07:22:17 17° E 07:24:46 10° SE visible
01 Oct 9.7 20:40:47 10° SW 20:43:14 18° W 20:45:42 10° NW visible
02 Oct 7.8 20:15:34 10° S 20:18:54 47° WSW 20:22:18 10° NNW visible
